{"data":{"norad_id":49003,"intl_designator":"2021-061A","name":"JILIN-1 KUANFU-01B","alt_names":[],"object_type":"PAYLOAD","status":"ACTIVE","operator":null,"country":"PRC","launch_date":"2021-07-03","launch_site_code":"TAISC","launch_vehicle":null,"mission":null,"orbit_class":"UNKNOWN","rcs_meters":null,"size_class":null,"mass_kg":null,"dimensions":null,"purposes":[],"wikipedia_slug":null,"has_3d_model":false,"image_url":null,"decayed_at":null,"tle_current":{"epoch":"2026-09-20T22:26:59.940672Z","epoch_age_seconds":63785,"freshness":"FRESH","line1":"1 49003U 21061A   26263.93541598  .00001343  00000+0  86317-4 0  9998","line2":"2 49003  97.5139 338.3230 0008454  91.6307 268.5891 15.10074056287792","mean_motion":15.10074056,"eccentricity":0.0008454,"inclination_deg":97.5139,"raan_deg":338.323,"arg_perigee_deg":91.6307,"mean_anomaly_deg":268.5891,"bstar":8.6317e-5,"rev_number":28779,"period_min":95.359561624043,"perigee_km":530.12875309774,"apogee_km":541.8191318793,"semimajor_km":6914.1109424885,"source":"CELESTRAK","updated_at":"2026-09-21T09:00:07.939421Z"}}}